DW9080 Weather Reports


time (UTC)temp
C
wind
direction
speed
KPH
gust
KPH
rain 1hr
cm
rain 24hr
cm
rain mn
cm
humidity
%
barometer
mb
20260901135529 13 250 0.0 0.0 0.00 0.97 0.97 100 1012.7
20260901135028 13 250 0.0 0.0 0.00 0.97 0.97 100 1012.6
20260901134548 13 250 0.0 0.0 0.00 0.97 0.97 100 1012.4
20260901134026 13 250 0.0 0.0 0.00 0.97 0.97 100 1012.5
20260901133526 13 250 0.0 0.0 0.00 0.97 0.97 100 1012.5
20260901133026 13 250 0.0 0.0 0.00 0.97 0.97 100 1012.4
20260901132526 13 250 0.0 0.0 0.00 0.97 0.97 100 1012.4
20260901132026 13 250 0.0 0.0 0.00 0.97 0.97 100 1012.3
20260901131526 -17 0.0 0.0 0.00 0.97 0.97 1012.3
20260901131024 -17 0.0 0.0 0.00 0.97 0.97 1012.3
20260901130525 -17 0.0 0.0 0.00 0.97 0.97 1012.2
20260901130021 -17 0.0 0.0 0.00 0.97 0.97 1012.3
20260901125520 -17 0.0 0.0 0.00 0.97 0.97 1012.2
20260901125018 -17 0.0 0.0 0.00 0.97 0.97 1012.1
20260901124522 -17 0.0 0.0 0.00 0.97 0.97 1012.1
20260901124014 -17 0.0 0.0 0.00 0.97 0.97 1012.1
20260901123513 -17 0.0 0.0 0.00 0.97 0.97 1012.0
20260901123013 -17 0.0 0.0 0.00 0.97 0.97 1012.0
20260901122510 -17 0.0 0.0 0.00 0.97 0.97 1012.0
20260901122012 -17 0.0 0.0 0.00 0.97 0.97 1012.0
20260901121507 -17 0.0 0.0 0.00 0.97 0.97 1012.0
20260901121054 -17 0.0 0.0 0.00 0.97 0.97 1012.1
20260901120553 -17 0.0 0.0 0.00 0.97 0.97 1012.1
20260901120100 -17 0.0 0.0 0.00 0.97 0.97 1011.9
20260901115550 -17 0.0 0.0 0.00 0.97 0.97 1011.8
20260901115049 -17 0.0 0.0 0.00 0.97 0.97 1011.8
20260901114548 -17 0.0 0.0 0.00 0.97 0.97 1011.9
20260901114045 -17 0.0 0.0 0.00 0.97 0.97 1011.8
20260901113544 -17 0.0 0.0 0.00 0.97 0.97 1011.9
20260901113107 -17 0.0 0.0 0.00 0.97 0.97 1011.8
20260901112540 -17 0.0 0.0 0.00 0.97 0.97 1011.7
20260901112040 -17 0.0 0.0 0.00 0.97 0.97 1011.7
20260901111540 -17 0.0 0.0 0.00 0.97 0.97 1011.7
20260901111037 -17 0.0 0.0 0.00 0.97 0.97 1011.7
20260901110535 -17 0.0 0.0 0.00 0.97 0.97 1011.6
20260901110034 -17 0.0 0.0 0.00 0.97 0.97 1011.6
20260901105533 -17 0.0 0.0 0.00 0.97 0.97 1011.7
20260901105031 -17 0.0 0.0 0.00 0.97 0.97 1011.5
20260901104532 -17 0.0 0.0 0.00 0.97 0.97 1011.7
20260901104029 -17 0.0 0.0 0.00 0.97 0.97 1011.7
20260901103526 -17 0.0 0.0 0.00 0.97 0.97 1011.7
20260901103025 -17 0.0 0.0 0.00 0.97 0.97 1011.7
20260901102524 -17 0.0 0.0 0.00 0.97 0.97 1011.7
20260901102022 -17 0.0 0.0 0.00 0.97 0.97 1011.8
20260901101527 -17 0.0 0.0 0.00 0.97 0.97 1011.8
20260901101002 -17 0.0 0.0 0.00 0.97 0.97 1011.8
20260901100501 14 250 0.0 0.0 0.00 0.97 0.97 100 1011.7
20260901100002 14 250 0.0 0.0 0.00 0.97 0.97 100 1011.8
20260901095601 14 250 0.0 0.0 0.00 0.97 0.97 100 1011.7
20260901095101 14 250 0.0 0.0 0.00 0.97 0.97 100 1011.7
20260901094600 14 250 0.0 0.0 0.00 0.97 0.97 100 1011.7
20260901094043 14 250 0.0 0.0 0.00 0.97 0.97 100 1011.6
20260901093546 14 250 0.0 0.0 0.00 0.97 0.97 100 1011.5
20260901093042 14 250 0.0 0.0 0.00 0.97 0.97 100 1011.5
20260901092542 14 250 0.0 0.0 0.00 0.97 0.97 100 1011.5
20260901092046 14 250 0.0 0.0 0.00 0.97 0.97 100 1011.5
20260901091542 14 250 0.0 0.0 0.00 0.97 0.97 100 1011.4
20260901091024 14 251 0.0 0.0 0.00 0.97 0.97 100 1011.7
20260901090524 14 250 0.0 0.0 0.00 0.97 0.97 100 1011.8
20260901090024 14 250 0.0 0.0 0.00 0.97 0.97 100 1011.7
20260901085524 14 250 0.0 0.0 0.00 0.97 0.97 100 1011.7
20260901085024 14 250 0.0 0.0 0.00 0.97 0.97 100 1011.8
20260901084531 14 250 0.0 0.0 0.00 0.97 0.97 100 1011.8
20260901084010 14 250 0.0 0.0 0.00 0.97 0.97 100 1011.8
20260901083509 14 250 0.0 0.0 0.00 0.97 0.97 100 1011.8
20260901083007 14 250 0.0 0.0 0.00 0.97 0.97 100 1011.8
20260901082506 14 253 0.0 0.0 0.00 0.97 0.97 100 1011.8
20260901082006 14 253 0.0 1.6 0.00 0.97 0.97 100 1011.8
20260901081506 14 251 0.0 1.6 0.00 0.97 0.97 100 1011.9
20260901081106 14 256 0.0 0.0 0.00 0.97 0.97 100 1011.9
20260901080548 14 256 0.0 0.0 0.00 0.97 0.97 100 1011.9
20260901080048 14 256 0.0 0.0 0.00 0.97 0.97 100 1011.9
20260901075548 14 255 0.0 0.0 0.00 0.97 0.97 100 1011.8
20260901075050 14 250 0.0 0.0 0.00 0.97 0.97 100 1011.8
20260901074547 14 243 0.0 0.0 0.00 0.97 0.97 100 1011.9
20260901074047 14 66 0.0 0.0 0.00 0.97 0.97 100 1011.9
20260901073530 14 65 0.0 0.0 0.00 0.97 0.97 100 1011.9
20260901073032 14 65 0.0 0.0 0.00 0.97 0.97 100 1011.9
20260901072532 14 65 0.0 0.0 0.00 0.97 0.97 100 1011.9
20260901072029 14 65 0.0 0.0 0.00 0.97 0.97 100 1012.0
20260901071530 14 65 0.0 0.0 0.03 0.97 0.97 100 1012.0
20260901071033 14 67 0.0 0.0 0.03 0.97 0.97 100 1012.0
20260901070511 14 66 0.0 0.0 0.03 0.97 0.97 100 1011.9
20260901070012 14 66 0.0 0.0 0.03 0.97 0.97 100 1011.9
20260901065511 14 66 0.0 0.0 0.03 0.97 0.97 100 1011.9
20260901065011 14 66 0.0 0.0 0.03 0.97 0.97 100 1012.0
20260901064511 14 67 0.0 0.0 0.05 0.97 0.97 100 1011.9
20260901064011 14 65 0.0 0.0 0.05 0.97 0.97 100 1012.1
20260901063552 14 108 0.0 1.6 0.05 0.97 0.97 100 1012.2
20260901063053 14 74 0.0 1.6 0.05 0.97 0.97 100 1012.2
20260901062552 14 68 0.0 3.2 0.05 0.97 0.97 100 1012.2
20260901062057 14 70 0.0 3.2 0.08 0.97 0.97 100 1012.3
20260901061553 14 61 0.0 1.6 0.05 0.94 0.94 100 1012.4
20260901061053 14 60 0.0 1.6 0.08 0.94 0.94 100 1012.4
20260901060537 14 80 0.0 0.0 0.08 0.94 0.94 99 1012.6
20260901060034 14 77 0.0 0.0 0.10 0.94 0.94 99 1012.7
20260901055533 14 79 0.0 0.0 0.13 0.94 0.94 99 1012.8
20260901055035 14 82 0.0 0.0 0.15 0.94 0.94 99 1012.8
20260901054534 14 65 0.0 0.0 0.13 0.91 0.91 99 1013.0
20260901054035 14 58 0.0 0.0 0.15 0.91 0.91 99 1013.0
20260901053518 14 49 0.0 0.0 0.15 0.89 0.89 99 1013.2
20260901053019 14 55 0.0 0.0 0.15 0.99 0.89 99 1013.2
20260901052518 14 76 0.0 0.0 0.18 0.99 0.89 99 1013.3
20260901052014 14 77 0.0 0.0 0.18 0.99 0.89 99 1013.5
20260901051513 15 60 0.0 0.0 0.23 0.99 0.89 99 1013.5
20260901051013 15 63 0.0 0.0 0.20 0.97 0.86 99 1013.6
20260901050502 15 53 0.0 1.6 0.23 0.97 0.86 99 1013.6
20260901050002 15 53 0.0 1.6 0.20 0.94 0.84 99 1013.6
20260901045500 15 61 0.0 1.6 0.20 0.91 0.81 99 1013.6
20260901045003 15 56 0.0 0.0 0.20 0.89 0.79 99 1013.7
20260901044502 15 23 0.0 0.0 0.20 0.89 0.79 99 1013.6
20260901044001 15 54 0.0 0.0 0.20 0.86 0.76 99 1013.7
20260901043601 15 53 0.0 0.0 0.20 0.86 0.76 99 1013.7
20260901043108 15 66 0.0 0.0 0.18 0.84 0.71 99 1013.7
20260901042600 15 294 0.0 0.0 0.15 0.81 0.71 99 1013.7
20260901042100 15 293 0.0 0.0 0.15 0.79 0.71 99 1013.6
20260901041559 15 250 0.0 0.0 0.13 0.79 0.69 99 1013.6
20260901041058 15 290 0.0 0.0 0.10 0.76 0.66 99 1013.7
20260901040558 15 256 0.0 0.0 0.08 0.71 0.64 99 1013.5
20260901040058 15 256 0.0 0.0 0.08 0.71 0.64 99 1013.4
20260901035600 15 256 0.0 0.0 0.05 0.71 0.61 99 1013.2
20260901035055 15 256 0.0 0.0 0.05 0.71 0.61 99 1013.1
20260901034602 15 256 0.0 0.0 0.05 0.69 0.58 99 1013.1
20260901034100 15 255 0.0 0.0 0.05 0.66 0.56 99 1013.1
20260901033556 15 262 0.0 0.0 0.05 0.66 0.56 99 1012.9
20260901033053 15 245 0.0 1.6 0.08 0.66 0.56 99 1012.8
20260901032556 15 249 0.0 1.6 0.08 0.66 0.56 99 1012.7
20260901032101 15 259 0.0 1.6 0.08 0.66 0.56 99 1012.5
20260901031554 15 254 0.0 1.6 0.08 0.66 0.56 99 1012.4
20260901031050 15 269 0.0 1.6 0.10 0.66 0.56 99 1012.2
20260901030531 15 225 0.0 1.6 0.10 0.66 0.56 99 1012.0
20260901030032 15 257 0.0 0.0 0.15 0.66 0.56 99 1011.9
20260901025532 15 257 0.0 0.0 0.23 0.66 0.56 99 1011.7
20260901025032 15 257 0.0 1.6 0.30 0.64 0.53 99 1011.5
20260901024531 15 188 0.0 1.6 0.33 0.61 0.51 99 1011.4
20260901024031 15 231 0.0 1.6 0.33 0.61 0.51 99 1011.3
20260901023514 15 74 0.0 6.4 0.38 0.61 0.51 99 1011.1
20260901023013 15 79 0.0 8.0 0.38 0.58 0.48 98 1011.0
20260901022514 15 110 1.6 8.0 0.38 0.58 0.48 98 1010.9
20260901022019 15 156 0.0 3.2 0.38 0.58 0.48 98 1010.8
20260901021513 15 53 0.0 1.6 0.43 0.58 0.48 98 1010.8
20260901021013 15 74 0.0 1.6 0.43 0.56 0.46 98 1010.7
20260901020557 15 117 0.0 1.6 0.43 0.56 0.46 98 1010.6
20260901020111 15 56 0.0 8.0 0.41 0.51 0.41 98 1010.4
20260901015554 15 101 0.0 8.0 0.33 0.43 0.33 97 1010.5
20260901015058 15 154 1.6 8.0 0.23 0.33 0.23 97 1010.3
20260901014557 15 139 0.0 8.0 0.20 0.30 0.20 96 1009.9
20260901014051 15 49 1.6 8.0 0.18 0.28 0.18 94 1009.6
20260901013533 16 63 0.0 12.9 0.13 0.23 0.13 92 1009.5
20260901013033 16 75 3.2 12.9 0.10 0.20 0.10 91 1009.4
20260901012529 16 89 1.6 11.3 0.10 0.20 0.10 91 1009.2
20260901012032 16 86 1.6 11.3 0.10 0.20 0.10 90 1009.0
20260901011535 16 54 1.6 8.0 0.05 0.15 0.05 89 1009.0
20260901011026 17 73 1.6 8.0 0.05 0.15 0.05 87 1008.9
20260901010512 17 70 0.0 8.0 0.03 0.13 0.03 85 1009.0
20260901010008 17 58 1.6 14.5 0.00 0.10 0.00 82 1008.8
20260901005512 18 76 3.2 11.3 0.00 0.10 0.00 80 1008.8
20260901005008 17 92 3.2 12.9 0.00 0.10 0.00 80 1008.8
20260901004509 17 105 3.2 16.1 0.00 0.10 0.00 81 1008.7
20260901004007 17 61 8.0 17.7 0.00 0.10 0.00 80 1008.7
20260901003607 18 70 6.4 20.9 0.00 0.10 0.00 79 1008.5
20260901003052 18 56 9.7 20.9 0.00 0.10 0.00 79 1008.3
20260901002546 18 74 8.0 19.3 0.00 0.10 0.00 78 1008.3
20260901002046 18 61 3.2 17.7 0.00 0.10 0.00 78 1008.2
20260901001558 18 63 1.6 17.7 0.00 0.10 0.00 79 1008.1
20260901001044 19 72 0.0 9.7 0.00 0.10 0.00 80 1008.0
20260901000545 19 77 0.0 1.6 0.00 0.10 0.00 80 1007.9
20260901000028 20 68 0.0 1.6 0.00 0.10 0.00 79 1007.8
20260831235527 20 70 0.0 1.6 0.00 0.10 0.00 78 1007.6
20260831235027 20 70 0.0 1.6 0.00 0.10 0.00 76 1007.5
20260831234528 20 41 0.0 1.6 0.00 0.10 0.00 72 1007.4
20260831234027 21 23 0.0 1.6 0.00 0.10 0.00 72 1007.5
20260831233526 21 66 0.0 6.4 0.00 0.10 0.00 70 1007.4
20260831233019 20 219 0.0 6.4 0.00 0.10 0.00 69 1007.1
20260831232510 20 203 0.0 14.5 0.00 0.10 0.00 71 1007.0
20260831232009 20 214 1.6 20.9 0.00 0.10 0.00 70 1006.9
20260831231509 21 228 9.7 24.1 0.00 0.10 0.00 65 1006.9
20260831231009 22 226 12.9 24.1 0.00 0.10 0.00 62 1006.9
20260831230508 23 222 0.0 1.6 0.00 0.10 0.00 59 1006.7
20260831230050 23 228 0.0 1.6 0.00 0.10 0.00 56 1006.6
20260831225549 23 283 0.0 1.6 0.00 0.10 0.00 57 1006.5
20260831225051 23 226 0.0 1.6 0.00 0.10 0.00 57 1006.4
20260831224549 23 255 0.0 1.6 0.00 0.10 0.00 57 1006.6
20260831224052 23 236 0.0 1.6 0.00 0.10 0.00 55 1006.7
20260831223549 23 255 0.0 1.6 0.00 0.10 0.00 57 1006.8
20260831223033 23 259 0.0 1.6 0.00 0.15 0.00 56 1006.7
20260831222533 24 257 0.0 0.0 0.00 0.15 0.00 57 1006.7
20260831222030 24 240 0.0 0.0 0.00 0.15 0.00 55 1006.6
20260831221532 24 1 0.0 0.0 0.00 0.15 0.00 55 1006.5
20260831221030 24 239 0.0 0.0 0.00 0.15 0.00 54 1006.6
20260831220530 25 256 0.0 1.6 0.00 0.15 0.00 56 1006.6
20260831220013 25 267 0.0 0.0 0.00 0.15 0.00 55 1006.6
20260831215513 25 255 0.0 0.0 0.00 0.15 0.00 53 1006.7
20260831215012 25 297 0.0 1.6 0.00 0.15 0.00 52 1006.7
20260831214516 25 260 0.0 1.6 0.00 0.15 0.00 51 1006.8
20260831214112 25 47 0.0 1.6 0.00 0.15 0.00 52 1006.8
20260831213511 25 56 0.0 0.0 0.00 0.15 0.00 50 1007.0
20260831213051 26 70 0.0 1.6 0.00 0.15 0.00 50 1007.0
20260831212553 25 60 0.0 3.2 0.00 0.15 0.00 53 1007.2
20260831212050 25 65 0.0 6.4 0.00 0.15 0.00 51 1007.2
20260831211604 26 68 1.6 6.4 0.00 0.15 0.00 49 1007.3
20260831211049 26 239 0.0 1.6 0.00 0.15 0.00 51 1007.4
20260831210551 26 135 0.0 1.6 0.00 0.15 0.00 51 1007.4
20260831210030 25 77 0.0 0.0 0.00 0.15 0.00 51 1007.7
20260831205529 25 20 0.0 1.6 0.00 0.15 0.00 49 1007.7
20260831205029 26 46 0.0 1.6 0.00 0.15 0.00 48 1007.8
20260831204527 25 314 0.0 0.0 0.00 0.15 0.00 50 1007.9
20260831204027 25 82 0.0 0.0 0.00 0.15 0.00 49 1008.0
20260831203525 25 69 0.0 0.0 0.00 0.15 0.00 48 1008.1
20260831203007 25 57 0.0 0.0 0.00 0.15 0.00 53 1008.3
20260831202507 25 284 0.0 0.0 0.00 0.15 0.00 50 1008.4
20260831202005 25 236 0.0 0.0 0.00 0.15 0.00 50 1008.6
20260831201504 25 65 0.0 1.6 0.00 0.15 0.00 55 1008.7
20260831201003 24 70 0.0 1.6 0.00 0.15 0.00 52 1008.8
20260831200503 25 61 0.0 0.0 0.00 0.15 0.00 51 1008.8
20260831200045 24 308 0.0 0.0 0.00 0.15 0.00 54 1009.0
20260831195545 24 283 0.0 0.0 0.00 0.15 0.00 58 1009.1
20260831195045 23 285 0.0 0.0 0.00 0.15 0.00 58 1009.3
20260831194613 23 224 0.0 0.0 0.00 0.15 0.00 55 1009.4
20260831194039 23 291 0.0 0.0 0.00 0.15 0.00 56 1009.6
20260831193544 23 351 0.0 0.0 0.00 0.15 0.00 53 1009.6
20260831193028 23 41 0.0 0.0 0.00 0.15 0.00 55 1009.7
20260831192529 23 219 0.0 0.0 0.00 0.15 0.00 54 1009.7
20260831192024 23 212 0.0 0.0 0.00 0.15 0.00 58 1009.9
20260831191528 23 217 0.0 0.0 0.00 0.15 0.00 58 1009.9
20260831191024 23 98 0.0 0.0 0.00 0.15 0.00 55 1009.9
20260831190524 23 243 0.0 0.0 0.00 0.15 0.00 57 1010.0
20260831190023 23 238 0.0 0.0 0.00 0.15 0.00 55 1010.0
20260831185522 24 262 0.0 0.0 0.00 0.15 0.00 57 1010.1
20260831185021 23 323 0.0 0.0 0.00 0.15 0.00 58 1010.1
20260831184525 23 20 0.0 0.0 0.00 0.15 0.00 58 1010.2
20260831184018 23 69 0.0 0.0 0.00 0.15 0.00 58 1010.3
20260831183517 22 27 0.0 0.0 0.00 0.15 0.00 58 1010.4
20260831183017 22 353 0.0 0.0 0.00 0.15 0.00 58 1010.5
20260831182516 22 20 0.0 0.0 0.00 0.15 0.00 57 1010.6
20260831182015 22 246 0.0 0.0 0.00 0.15 0.00 61 1010.6
20260831181521 22 274 0.0 0.0 0.00 0.15 0.00 61 1010.6
20260831181014 22 302 0.0 0.0 0.00 0.15 0.00 58 1010.8
20260831180521 22 293 0.0 1.6 0.00 0.15 0.00 58 1010.9
20260831180012 22 252 0.0 1.6 0.00 0.15 0.00 61 1010.8
20260831175512 22 297 0.0 0.0 0.00 0.15 0.00 60 1010.9
20260831175011 23 323 0.0 1.6 0.00 0.15 0.00 60 1010.9
20260831174510 23 250 0.0 1.6 0.00 0.15 0.00 65 1011.0
20260831174009 22 234 0.0 1.6 0.00 0.15 0.00 65 1011.1
20260831173507 22 253 0.0 0.0 0.00 0.15 0.00 69 1011.2
20260831173109 22 350 0.0 1.6 0.00 0.15 0.00 67 1011.3
20260831172548 22 236 0.0 1.6 0.00 0.15 0.00 69 1011.3
20260831172047 22 285 0.0 0.0 0.00 0.15 0.00 72 1011.4
20260831171546 21 300 0.0 0.0 0.00 0.15 0.00 70 1011.5
20260831171046 21 251 0.0 0.0 0.00 0.15 0.00 68 1011.6
20260831170545 22 276 0.0 1.6 0.00 0.15 0.00 72 1011.5
20260831170044 21 243 0.0 1.6 0.00 0.15 0.00 74 1011.6
20260831165524 21 301 0.0 1.6 0.00 0.15 0.00 74 1011.6
20260831165024 20 250 0.0 1.6 0.00 0.15 0.00 74 1011.7
20260831164524 20 240 0.0 1.6 0.00 0.15 0.00 74 1011.8
20260831164024 20 259 0.0 1.6 0.00 0.15 0.00 74 1011.8
20260831163522 20 253 0.0 0.0 0.00 0.15 0.00 76 1011.8
20260831163023 20 253 0.0 0.0 0.00 0.15 0.00 76 1011.9
20260831162504 20 281 0.0 0.0 0.00 0.15 0.00 76 1012.0
20260831162003 20 348 0.0 0.0 0.00 0.15 0.00 75 1012.0
20260831161502 20 260 0.0 1.6 0.00 0.15 0.00 77 1011.9
20260831161100 20 326 0.0 1.6 0.00 0.15 0.00 79 1012.0
20260831160559 19 293 0.0 0.0 0.00 0.15 0.00 79 1012.1
20260831160059 19 252 0.0 0.0 0.00 0.15 0.00 79 1012.1
20260831155540 19 8 0.0 0.0 0.00 0.15 0.00 80 1012.1
20260831155041 18 240 0.0 0.0 0.00 0.15 0.00 82 1012.1
20260831154537 18 236 0.0 0.0 0.00 0.15 0.00 85 1012.2
20260831154038 18 233 0.0 0.0 0.00 0.15 0.00 86 1012.2
20260831153537 17 231 0.0 1.6 0.00 0.15 0.00 85 1012.2
20260831153032 17 200 0.0 1.6 0.00 0.15 0.15 86 1012.1
20260831152516 17 279 0.0 0.0 0.00 0.15 0.15 85 1012.2
20260831152019 17 265 0.0 0.0 0.00 0.15 0.15 88 1012.1
20260831151516 17 256 0.0 0.0 0.00 0.15 0.15 88 1012.0
20260831151017 17 17 0.0 0.0 0.00 0.15 0.15 89 1012.0
20260831150515 17 9 0.0 0.0 0.00 0.15 0.15 90 1012.0
20260831150016 17 295 0.0 0.0 0.00 0.15 0.15 90 1012.1
20260831145557 17 297 0.0 0.0 0.00 0.15 0.15 91 1012.1
20260831145057 17 297 0.0 0.0 0.00 0.15 0.15 91 1012.1
20260831144616 16 300 0.0 0.0 0.00 0.15 0.15 92 1012.1
20260831144057 16 320 0.0 0.0 0.00 0.15 0.15 93 1012.2
20260831143557 16 250 0.0 0.0 0.00 0.15 0.15 94 1012.1
20260831143057 16 257 0.0 0.0 0.00 0.15 0.15 95 1012.1
20260831142541 16 257 0.0 0.0 0.00 0.15 0.15 96 1012.1
20260831142039 15 257 0.0 0.0 0.00 0.15 0.15 96 1012.1
20260831141539 15 259 0.0 0.0 0.00 0.15 0.15 97 1012.1
20260831141039 15 274 0.0 0.0 0.00 0.15 0.15 97 1012.2
20260831140541 15 274 0.0 0.0 0.00 0.15 0.15 98 1012.3
20260831140039 15 276 0.0 0.0 0.00 0.15 0.15 98 1012.3